Time,TemperatureF,DewpointF,PressureIn,WindDirection,WindDirectionDegrees,WindSpeedMPH,WindSpeedGustMPH,Humidity,HourlyPrecipIn,Conditions,Clouds,dailyrainin,SoftwareType,DateUTC
2013-03-05 00:00:00,38.4,29.8,30.00,NW,317,12.0,13.0,71,0.00,,,0.00,Wunderground v.1.15,2013-03-05 05:00:00,
2013-03-05 00:01:00,38.4,29.8,30.01,NW,319,11.0,13.0,71,0.00,,,0.00,Wunderground v.1.15,2013-03-05 05:01:00,
2013-03-05 00:02:00,38.4,29.8,30.00,NW,315,12.0,13.0,71,0.00,,,0.00,Wunderground v.1.15,2013-03-05 05:02:00,
2013-03-05 00:07:00,38.3,29.7,30.01,NW,317,13.0,14.0,71,0.00,,,0.00,Wunderground v.1.15,2013-03-05 05:07:00,
2013-03-05 00:13:00,38.3,29.7,30.01,NW,317,12.0,13.0,71,0.00,,,0.00,Wunderground v.1.15,2013-03-05 05:13:00,
2013-03-05 00:18:00,38.2,29.3,30.01,NW,310,11.0,14.0,70,0.00,,,0.00,Wunderground v.1.15,2013-03-05 05:18:00,
2013-03-05 00:23:00,38.2,29.3,30.01,NW,317,14.0,14.0,70,0.00,,,0.00,Wunderground v.1.15,2013-03-05 05:23:00,
2013-03-05 00:28:00,38.2,30.0,30.02,NW,315,13.0,14.0,72,0.00,,,0.00,Wunderground v.1.15,2013-03-05 05:28:00,
2013-03-05 00:34:00,38.2,29.3,30.02,NW,309,13.0,15.0,70,0.00,,,0.00,Wunderground v.1.15,2013-03-05 05:34:00,
2013-03-05 00:40:00,38.2,29.3,30.02,NW,311,10.0,13.0,70,0.00,,,0.00,Wunderground v.1.15,2013-03-05 05:40:00,
2013-03-05 00:45:00,38.2,30.0,30.02,NW,305,13.0,13.0,72,0.00,,,0.00,Wunderground v.1.15,2013-03-05 05:45:00,
2013-03-05 00:50:00,38.1,29.5,30.03,NW,304,13.0,13.0,71,0.00,,,0.00,Wunderground v.1.15,2013-03-05 05:50:00,
2013-03-05 00:55:00,38.0,29.1,30.03,NW,304,12.0,13.0,70,0.00,,,0.00,Wunderground v.1.15,2013-03-05 05:55:00,
2013-03-05 01:00:00,38.0,29.4,30.03,NW,306,11.0,12.0,71,0.00,,,0.00,Wunderground v.1.15,2013-03-05 06:00:00,
2013-03-05 01:05:00,37.9,29.3,30.03,WNW,296,12.0,13.0,71,0.00,,,0.00,Wunderground v.1.15,2013-03-05 06:05:00,
2013-03-05 01:11:00,37.9,29.3,30.03,NW,306,12.0,12.0,71,0.00,,,0.00,Wunderground v.1.15,2013-03-05 06:11:00,
2013-03-05 01:16:00,37.9,29.0,30.04,NW,307,11.0,12.0,70,0.00,,,0.00,Wunderground v.1.15,2013-03-05 06:16:00,
2013-03-05 01:22:00,37.9,29.7,30.03,NW,305,11.0,12.0,72,0.00,,,0.00,Wunderground v.1.15,2013-03-05 06:22:00,
2013-03-05 01:28:00,37.9,29.7,30.04,WNW,300,10.0,13.0,72,0.00,,,0.00,Wunderground v.1.15,2013-03-05 06:28:00,
2013-03-05 01:34:00,37.8,29.9,30.03,WNW,302,10.0,11.0,73,0.00,,,0.00,Wunderground v.1.15,2013-03-05 06:34:00,
2013-03-05 01:39:00,37.8,29.9,30.03,NW,306,9.0,11.0,73,0.00,,,0.00,Wunderground v.1.15,2013-03-05 06:39:00,
2013-03-05 01:45:00,37.7,29.5,30.04,NW,305,10.0,11.0,72,0.00,,,0.00,Wunderground v.1.15,2013-03-05 06:45:00,
2013-03-05 01:51:00,37.7,30.2,30.03,NW,313,11.0,11.0,74,0.00,,,0.00,Wunderground v.1.15,2013-03-05 06:51:00,
2013-03-05 01:57:00,37.7,29.1,30.03,NW,312,11.0,13.0,71,0.00,,,0.00,Wunderground v.1.15,2013-03-05 06:57:00,
2013-03-05 02:02:00,37.7,29.5,30.03,NW,314,9.0,12.0,72,0.00,,,0.00,Wunderground v.1.15,2013-03-05 07:02:00,
2013-03-05 02:07:00,37.7,29.1,30.03,NW,315,11.0,13.0,71,0.00,,,0.00,Wunderground v.1.15,2013-03-05 07:07:00,
2013-03-05 02:12:00,37.7,29.8,30.03,NW,319,10.0,11.0,73,0.00,,,0.00,Wunderground v.1.15,2013-03-05 07:12:00,
2013-03-05 02:17:00,37.7,29.5,30.02,NW,319,12.0,13.0,72,0.00,,,0.00,Wunderground v.1.15,2013-03-05 07:17:00,
2013-03-05 02:22:00,37.6,28.7,30.02,NW,321,11.0,14.0,70,0.00,,,0.00,Wunderground v.1.15,2013-03-05 07:22:00,
2013-03-05 02:27:00,37.6,29.0,30.02,NW,321,11.0,14.0,71,0.00,,,0.00,Wunderground v.1.15,2013-03-05 07:27:00,
2013-03-05 02:32:00,37.5,28.9,30.02,NW,321,12.0,14.0,71,0.00,,,0.00,Wunderground v.1.15,2013-03-05 07:32:00,
2013-03-05 02:37:00,37.5,28.9,30.02,NW,326,11.0,15.0,71,0.00,,,0.00,Wunderground v.1.15,2013-03-05 07:37:00,
2013-03-05 02:42:00,37.4,28.9,30.02,NNW,336,12.0,14.0,71,0.00,,,0.00,Wunderground v.1.15,2013-03-05 07:42:00,
2013-03-05 02:47:00,37.4,29.5,30.02,NW,321,13.0,15.0,73,0.00,,,0.00,Wunderground v.1.15,2013-03-05 07:47:00,
2013-03-05 02:53:00,37.3,28.8,30.02,NNW,329,14.0,14.0,71,0.00,,,0.00,Wunderground v.1.15,2013-03-05 07:53:00,
2013-03-05 02:58:00,37.3,28.8,30.02,NW,320,12.0,14.0,71,0.00,,,0.00,Wunderground v.1.15,2013-03-05 07:58:00,
2013-03-05 03:03:00,37.3,28.8,30.03,NW,317,12.0,15.0,71,0.00,,,0.00,Wunderground v.1.15,2013-03-05 08:03:00,
2013-03-05 03:08:00,37.2,29.0,30.03,NW,317,10.0,15.0,72,0.00,,,0.00,Wunderground v.1.15,2013-03-05 08:08:00,
2013-03-05 03:13:00,37.2,29.0,30.03,NW,317,12.0,13.0,72,0.00,,,0.00,Wunderground v.1.15,2013-03-05 08:13:00,
2013-03-05 03:18:00,37.2,29.0,30.03,NW,323,12.0,13.0,72,0.00,,,0.00,Wunderground v.1.15,2013-03-05 08:18:00,
2013-03-05 03:23:00,37.2,29.0,30.03,NW,312,11.0,13.0,72,0.00,,,0.00,Wunderground v.1.15,2013-03-05 08:23:00,
2013-03-05 03:28:00,37.1,29.6,30.03,NW,319,11.0,13.0,74,0.00,,,0.00,Wunderground v.1.15,2013-03-05 08:28:00,
2013-03-05 03:33:00,37.1,29.6,30.03,NNW,327,11.0,12.0,74,0.00,,,0.00,Wunderground v.1.15,2013-03-05 08:33:00,
2013-03-05 03:38:00,37.0,28.8,30.03,NNW,329,12.0,13.0,72,0.00,,,0.00,Wunderground v.1.15,2013-03-05 08:38:00,
2013-03-05 03:43:00,37.0,28.8,30.03,NW,321,11.0,13.0,72,0.00,,,0.00,Wunderground v.1.15,2013-03-05 08:43:00,
2013-03-05 03:48:00,37.0,29.1,30.03,NW,315,12.0,13.0,73,0.00,,,0.00,Wunderground v.1.15,2013-03-05 08:48:00,
2013-03-05 03:53:00,36.9,29.1,30.03,NNW,327,11.0,14.0,73,0.00,,,0.00,Wunderground v.1.15,2013-03-05 08:53:00,
2013-03-05 03:58:00,36.9,29.1,30.03,NW,323,11.0,14.0,73,0.00,,,0.00,Wunderground v.1.15,2013-03-05 08:58:00,
2013-03-05 04:03:00,36.9,29.7,30.04,NW,314,10.0,11.0,75,0.00,,,0.00,Wunderground v.1.15,2013-03-05 09:03:00,
2013-03-05 04:08:00,36.9,29.1,30.04,NW,312,10.0,13.0,73,0.00,,,0.00,Wunderground v.1.15,2013-03-05 09:08:00,
2013-03-05 04:13:00,36.9,29.4,30.04,NW,325,11.0,13.0,74,0.00,,,0.00,Wunderground v.1.15,2013-03-05 09:13:00,
2013-03-05 04:18:00,36.9,29.4,30.04,NW,317,10.0,13.0,74,0.00,,,0.00,Wunderground v.1.15,2013-03-05 09:18:00,
2013-03-05 04:23:00,36.9,29.4,30.04,NW,314,12.0,13.0,74,0.00,,,0.00,Wunderground v.1.15,2013-03-05 09:23:00,
2013-03-05 04:28:00,36.8,29.0,30.05,NW,322,10.0,13.0,73,0.00,,,0.00,Wunderground v.1.15,2013-03-05 09:28:00,
2013-03-05 04:33:00,36.8,29.0,30.05,NNW,344,9.0,13.0,73,0.00,,,0.00,Wunderground v.1.15,2013-03-05 09:33:00,
2013-03-05 04:38:00,36.7,29.2,30.05,NW,325,10.0,13.0,74,0.00,,,0.00,Wunderground v.1.15,2013-03-05 09:38:00,
2013-03-05 04:43:00,36.7,29.2,30.05,NW,325,12.0,14.0,74,0.00,,,0.00,Wunderground v.1.15,2013-03-05 09:43:00,
2013-03-05 04:48:00,36.7,29.2,30.05,NW,321,10.0,14.0,74,0.00,,,0.00,Wunderground v.1.15,2013-03-05 09:48:00,
2013-03-05 04:53:00,36.6,28.8,30.06,NW,323,9.0,13.0,73,0.00,,,0.00,Wunderground v.1.15,2013-03-05 09:53:00,
2013-03-05 04:58:00,36.7,29.2,30.06,NNW,327,13.0,13.0,74,0.00,,,0.00,Wunderground v.1.15,2013-03-05 09:58:00,
2013-03-05 05:03:00,36.6,29.1,30.05,NW,322,11.0,14.0,74,0.00,,,0.00,Wunderground v.1.15,2013-03-05 10:03:00,
2013-03-05 05:08:00,36.6,28.4,30.05,NW,322,12.0,14.0,72,0.00,,,0.00,Wunderground v.1.15,2013-03-05 10:08:00,
2013-03-05 05:13:00,36.6,28.8,30.06,NW,317,11.0,14.0,73,0.00,,,0.00,Wunderground v.1.15,2013-03-05 10:13:00,
2013-03-05 05:18:00,36.6,28.8,30.05,NW,315,12.0,14.0,73,0.00,,,0.00,Wunderground v.1.15,2013-03-05 10:18:00,
2013-03-05 05:23:00,36.6,29.1,30.05,NW,324,12.0,15.0,74,0.00,,,0.00,Wunderground v.1.15,2013-03-05 10:23:00,
2013-03-05 05:28:00,36.6,28.8,30.05,NW,319,13.0,15.0,73,0.00,,,0.00,Wunderground v.1.15,2013-03-05 10:28:00,
2013-03-05 05:33:00,36.6,28.4,30.05,NW,323,12.0,14.0,72,0.00,,,0.00,Wunderground v.1.15,2013-03-05 10:33:00,
2013-03-05 05:38:00,36.7,29.2,30.05,NW,318,11.0,14.0,74,0.00,,,0.00,Wunderground v.1.15,2013-03-05 10:38:00,
2013-03-05 05:43:00,36.7,28.9,30.06,NW,315,14.0,15.0,73,0.00,,,0.00,Wunderground v.1.15,2013-03-05 10:43:00,
2013-03-05 05:48:00,36.7,29.5,30.05,NW,313,10.0,15.0,75,0.00,,,0.00,Wunderground v.1.15,2013-03-05 10:48:00,
2013-03-05 05:53:00,36.6,28.4,30.05,NW,323,12.0,15.0,72,0.00,,,0.00,Wunderground v.1.15,2013-03-05 10:53:00,
2013-03-05 05:58:00,36.6,28.8,30.05,NW,323,12.0,15.0,73,0.00,,,0.00,Wunderground v.1.15,2013-03-05 10:58:00,
2013-03-05 06:03:00,36.6,28.4,30.05,NNW,329,12.0,16.0,72,0.00,,,0.00,Wunderground v.1.15,2013-03-05 11:03:00,
2013-03-05 06:08:00,36.5,28.0,30.05,NNW,335,12.0,16.0,71,0.00,,,0.00,Wunderground v.1.15,2013-03-05 11:08:00,
2013-03-05 06:13:00,36.4,27.9,30.05,NW,325,7.0,14.0,71,0.00,,,0.00,Wunderground v.1.15,2013-03-05 11:13:00,
2013-03-05 06:18:00,36.1,27.3,30.05,NNW,337,5.0,14.0,70,0.00,,,0.00,Wunderground v.1.15,2013-03-05 11:18:00,
2013-03-05 06:23:00,36.0,27.5,30.05,NW,323,11.0,14.0,71,0.00,,,0.00,Wunderground v.1.15,2013-03-05 11:23:00,
2013-03-05 06:28:00,36.0,27.5,30.05,North,355,6.0,14.0,71,0.00,,,0.00,Wunderground v.1.15,2013-03-05 11:28:00,
2013-03-05 06:33:00,35.8,27.3,30.05,NNE,14,5.0,6.0,71,0.00,,,0.00,Wunderground v.1.15,2013-03-05 11:33:00,
2013-03-05 06:38:00,35.7,27.2,30.05,NNW,331,1.0,6.0,71,0.00,,,0.00,Wunderground v.1.15,2013-03-05 11:38:00,
2013-03-05 06:43:00,35.5,27.4,30.05,North,355,1.0,6.0,72,0.00,,,0.00,Wunderground v.1.15,2013-03-05 11:43:00,
2013-03-05 06:48:00,35.4,27.3,30.05,NW,322,0.0,6.0,72,0.00,,,0.00,Wunderground v.1.15,2013-03-05 11:48:00,
2013-03-05 06:53:00,35.3,26.8,30.05,NW,325,2.0,4.0,71,0.00,,,0.00,Wunderground v.1.15,2013-03-05 11:53:00,
2013-03-05 06:58:00,35.2,26.7,30.05,NE,43,2.0,5.0,71,0.00,,,0.00,Wunderground v.1.15,2013-03-05 11:58:00,
2013-03-05 07:03:00,35.2,26.0,30.05,NNW,340,3.0,9.0,69,0.00,,,0.00,Wunderground v.1.15,2013-03-05 12:03:00,
2013-03-05 07:08:00,35.2,26.4,30.06,NW,326,3.0,9.0,70,0.00,,,0.00,Wunderground v.1.15,2013-03-05 12:08:00,
2013-03-05 07:14:00,35.3,26.1,30.06,NW,313,2.0,7.0,69,0.00,,,0.00,Wunderground v.1.15,2013-03-05 12:14:00,
2013-03-05 07:19:00,35.3,26.5,30.06,North,11,3.0,12.0,70,0.00,,,0.00,Wunderground v.1.15,2013-03-05 12:19:00,
2013-03-05 07:24:00,35.4,26.9,30.06,North,355,3.0,11.0,71,0.00,,,0.00,Wunderground v.1.15,2013-03-05 12:24:00,
2013-03-05 07:29:00,35.5,26.7,30.06,North,350,3.0,11.0,70,0.00,,,0.00,Wunderground v.1.15,2013-03-05 12:29:00,
2013-03-05 07:34:00,35.5,26.7,30.06,NNW,339,5.0,5.0,70,0.00,,,0.00,Wunderground v.1.15,2013-03-05 12:34:00,
2013-03-05 07:39:00,35.6,26.8,30.06,NNW,330,2.0,12.0,70,0.00,,,0.00,Wunderground v.1.15,2013-03-05 12:39:00,
2013-03-05 07:44:00,35.7,26.5,30.06,NW,321,3.0,10.0,69,0.00,,,0.00,Wunderground v.1.15,2013-03-05 12:44:00,
2013-03-05 07:49:00,35.8,27.3,30.06,NNW,329,6.0,10.0,71,0.00,,,0.00,Wunderground v.1.15,2013-03-05 12:49:00,
2013-03-05 07:54:00,35.9,27.7,30.06,NNW,329,3.0,5.0,72,0.00,,,0.00,Wunderground v.1.15,2013-03-05 12:54:00,
2013-03-05 07:59:00,36.0,27.8,30.06,NNW,333,1.0,5.0,72,0.00,,,0.00,Wunderground v.1.15,2013-03-05 12:59:00,
2013-03-05 08:04:00,36.1,28.3,30.07,NNW,333,3.0,5.0,73,0.00,,,0.00,Wunderground v.1.15,2013-03-05 13:04:00,
2013-03-05 08:09:00,36.2,28.4,30.07,NNW,336,1.0,6.0,73,0.00,,,0.00,Wunderground v.1.15,2013-03-05 13:09:00,
2013-03-05 08:14:00,36.4,28.6,30.07,NE,44,3.0,5.0,73,0.00,,,0.00,Wunderground v.1.15,2013-03-05 13:14:00,
2013-03-05 08:19:00,36.4,28.2,30.07,North,355,2.0,6.0,72,0.00,,,0.00,Wunderground v.1.15,2013-03-05 13:19:00,
2013-03-05 08:24:00,36.4,28.2,30.07,NW,321,2.0,5.0,72,0.00,,,0.00,Wunderground v.1.15,2013-03-05 13:24:00,
2013-03-05 08:29:00,36.5,28.3,30.07,NNE,30,5.0,6.0,72,0.00,,,0.00,Wunderground v.1.15,2013-03-05 13:29:00,
2013-03-05 08:34:00,36.5,29.7,30.07,NW,324,4.0,7.0,76,0.00,,,0.00,Wunderground v.1.15,2013-03-05 13:34:00,
2013-03-05 08:39:00,36.5,28.0,30.07,NNW,329,3.0,7.0,71,0.00,,,0.00,Wunderground v.1.15,2013-03-05 13:39:00,
2013-03-05 08:45:00,36.5,27.3,30.07,NNW,333,2.0,7.0,69,0.00,,,0.00,Wunderground v.1.15,2013-03-05 13:45:00,
2013-03-05 08:50:00,36.6,27.4,30.07,NNW,337,6.0,6.0,69,0.00,,,0.00,Wunderground v.1.15,2013-03-05 13:50:00,
2013-03-05 08:55:00,36.7,27.8,30.07,NNW,341,5.0,6.0,70,0.00,,,0.00,Wunderground v.1.15,2013-03-05 13:55:00,
2013-03-05 09:00:00,36.7,27.8,30.07,North,350,5.0,5.0,70,0.00,,,0.00,Wunderground v.1.15,2013-03-05 14:00:00,
2013-03-05 09:05:00,36.6,28.1,30.07,NNW,336,3.0,8.0,71,0.00,,,0.00,Wunderground v.1.15,2013-03-05 14:05:00,
2013-03-05 09:10:00,36.6,28.4,30.07,NNW,333,7.0,7.0,72,0.00,,,0.00,Wunderground v.1.15,2013-03-05 14:10:00,
2013-03-05 09:15:00,36.3,28.1,30.07,NNW,331,4.0,10.0,72,0.00,,,0.00,Wunderground v.1.15,2013-03-05 14:15:00,
2013-03-05 09:20:00,36.2,28.0,30.07,NNW,329,3.0,5.0,72,0.00,,,0.00,Wunderground v.1.15,2013-03-05 14:20:00,
2013-03-05 09:25:00,36.2,28.0,30.07,NW,325,7.0,12.0,72,0.00,,,0.00,Wunderground v.1.15,2013-03-05 14:25:00,
2013-03-05 09:30:00,36.0,27.5,30.07,NW,325,6.0,8.0,71,0.00,,,0.00,Wunderground v.1.15,2013-03-05 14:30:00,
2013-03-05 09:35:00,35.7,27.6,30.07,NW,325,6.0,9.0,72,0.00,,,0.00,Wunderground v.1.15,2013-03-05 14:35:00,
2013-03-05 09:40:00,35.6,27.1,30.07,NW,325,6.0,7.0,71,0.00,,,0.00,Wunderground v.1.15,2013-03-05 14:40:00,
2013-03-05 09:45:00,35.6,27.1,30.07,NW,325,4.0,8.0,71,0.00,,,0.00,Wunderground v.1.15,2013-03-05 14:45:00,
2013-03-05 09:50:00,35.7,27.2,30.07,NW,325,5.0,5.0,71,0.00,,,0.00,Wunderground v.1.15,2013-03-05 14:50:00,
2013-03-05 09:55:00,35.8,28.0,30.06,NNW,330,4.0,9.0,73,0.00,,,0.00,Wunderground v.1.15,2013-03-05 14:55:00,
2013-03-05 10:00:00,36.2,28.0,30.06,NNW,331,4.0,8.0,72,0.00,,,0.00,Wunderground v.1.15,2013-03-05 15:00:00,
2013-03-05 10:05:00,36.1,27.9,30.06,East,92,4.0,10.0,72,0.00,,,0.00,Wunderground v.1.15,2013-03-05 15:05:00,
2013-03-05 10:10:00,36.3,27.8,30.06,NNW,329,5.0,7.0,71,0.00,,,0.00,Wunderground v.1.15,2013-03-05 15:10:00,
2013-03-05 10:15:00,36.4,27.5,30.06,NNW,348,6.0,9.0,70,0.00,,,0.00,Wunderground v.1.15,2013-03-05 15:15:00,
2013-03-05 10:20:00,36.9,28.7,30.05,NNW,336,4.0,5.0,72,0.00,,,0.00,Wunderground v.1.15,2013-03-05 15:20:00,
2013-03-05 10:25:00,37.2,27.6,30.05,NNW,327,8.0,9.0,68,0.00,,,0.00,Wunderground v.1.15,2013-03-05 15:25:00,
2013-03-05 10:30:00,37.1,27.5,30.05,NW,321,7.0,11.0,68,0.00,,,0.00,Wunderground v.1.15,2013-03-05 15:30:00,
2013-03-05 10:35:00,37.1,27.2,30.05,NNW,337,6.0,11.0,67,0.00,,,0.00,Wunderground v.1.15,2013-03-05 15:35:00,
2013-03-05 10:40:00,37.3,27.7,30.04,NNW,339,3.0,9.0,68,0.00,,,0.00,Wunderground v.1.15,2013-03-05 15:40:00,
2013-03-05 10:45:00,37.2,26.5,30.04,NW,321,9.0,11.0,65,0.00,,,0.00,Wunderground v.1.15,2013-03-05 15:45:00,
2013-03-05 10:50:00,37.2,26.9,30.04,NNW,328,7.0,9.0,66,0.00,,,0.00,Wunderground v.1.15,2013-03-05 15:50:00,
2013-03-05 10:55:00,37.1,26.8,30.04,NNW,330,8.0,10.0,66,0.00,,,0.00,Wunderground v.1.15,2013-03-05 15:55:00,
2013-03-05 11:00:00,37.1,26.8,30.04,NNW,327,4.0,9.0,66,0.00,,,0.00,Wunderground v.1.15,2013-03-05 16:00:00,
2013-03-05 11:05:00,37.0,26.7,30.04,NNW,329,9.0,10.0,66,0.00,,,0.00,Wunderground v.1.15,2013-03-05 16:05:00,
2013-03-05 11:10:00,37.0,27.1,30.04,NNW,329,7.0,8.0,67,0.00,,,0.00,Wunderground v.1.15,2013-03-05 16:10:00,
2013-03-05 11:15:00,36.9,27.0,30.03,NNW,329,6.0,9.0,67,0.00,,,0.00,Wunderground v.1.15,2013-03-05 16:15:00,
2013-03-05 11:20:00,36.9,27.3,30.03,NNW,331,7.0,10.0,68,0.00,,,0.00,Wunderground v.1.15,2013-03-05 16:20:00,
2013-03-05 11:25:00,37.1,27.2,30.03,NNW,332,6.0,10.0,67,0.00,,,0.00,Wunderground v.1.15,2013-03-05 16:25:00,
2013-03-05 11:30:00,37.5,27.5,30.03,NNW,332,7.0,9.0,67,0.00,,,0.00,Wunderground v.1.15,2013-03-05 16:30:00,
2013-03-05 11:35:00,37.5,27.9,30.03,NNW,331,7.0,10.0,68,0.00,,,0.00,Wunderground v.1.15,2013-03-05 16:35:00,
2013-03-05 11:40:00,37.7,27.7,30.03,NNW,331,6.0,7.0,67,0.00,,,0.00,Wunderground v.1.15,2013-03-05 16:40:00,
2013-03-05 11:45:00,37.8,28.5,30.03,NNW,331,6.0,9.0,69,0.00,,,0.00,Wunderground v.1.15,2013-03-05 16:45:00,
2013-03-05 11:50:00,37.9,28.6,30.04,NNW,331,6.0,6.0,69,0.00,,,0.00,Wunderground v.1.15,2013-03-05 16:50:00,
2013-03-05 11:55:00,37.9,28.6,30.03,NNW,331,6.0,6.0,69,0.00,,,0.00,Wunderground v.1.15,2013-03-05 16:55:00,
2013-03-05 12:00:00,38.0,28.4,30.03,NNW,331,5.0,5.0,68,0.00,,,0.00,Wunderground v.1.15,2013-03-05 17:00:00,
2013-03-05 12:05:00,38.1,28.1,30.03,NNW,331,7.0,8.0,67,0.00,,,0.00,Wunderground v.1.15,2013-03-05 17:05:00,
2013-03-05 12:10:00,38.2,28.6,30.03,NNW,331,6.0,7.0,68,0.00,,,0.00,Wunderground v.1.15,2013-03-05 17:10:00,
2013-03-05 12:15:00,38.3,27.9,30.03,NNW,331,6.0,10.0,66,0.00,,,0.00,Wunderground v.1.15,2013-03-05 17:15:00,
2013-03-05 12:20:00,38.6,28.2,30.02,NNW,331,6.0,7.0,66,0.00,,,0.00,Wunderground v.1.15,2013-03-05 17:20:00,
2013-03-05 12:25:00,39.2,29.5,30.02,NNW,332,4.0,10.0,68,0.00,,,0.00,Wunderground v.1.15,2013-03-05 17:25:00,
2013-03-05 12:30:00,40.0,29.6,30.02,NNW,331,4.0,5.0,66,0.00,,,0.00,Wunderground v.1.15,2013-03-05 17:30:00,
2013-03-05 12:35:00,41.2,29.5,30.01,NE,41,1.0,10.0,63,0.00,,,0.00,Wunderground v.1.15,2013-03-05 17:35:00,
2013-03-05 12:40:00,41.9,30.6,30.01,NE,55,4.0,5.0,64,0.00,,,0.00,Wunderground v.1.15,2013-03-05 17:40:00,
2013-03-05 12:45:00,42.5,30.0,30.01,SE,136,1.0,7.0,61,0.00,,,0.00,Wunderground v.1.15,2013-03-05 17:45:00,
2013-03-05 12:50:00,42.8,30.7,30.00,East,101,2.0,3.0,62,0.00,,,0.00,Wunderground v.1.15,2013-03-05 17:50:00,
2013-03-05 12:55:00,42.9,30.8,30.00,SE,126,0.0,5.0,62,0.00,,,0.00,Wunderground v.1.15,2013-03-05 17:55:00,
2013-03-05 13:00:00,42.9,31.2,30.00,ESE,113,1.0,5.0,63,0.00,,,0.00,Wunderground v.1.15,2013-03-05 18:00:00,
2013-03-05 13:05:00,43.2,30.6,30.00,ESE,115,3.0,5.0,61,0.00,,,0.00,Wunderground v.1.15,2013-03-05 18:05:00,
2013-03-05 13:10:00,43.6,31.4,29.99,SE,124,3.0,4.0,62,0.00,,,0.00,Wunderground v.1.15,2013-03-05 18:10:00,
2013-03-05 13:15:00,43.8,30.8,29.99,ESE,108,1.0,4.0,60,0.00,,,0.00,Wunderground v.1.15,2013-03-05 18:15:00,
2013-03-05 13:20:00,44.2,31.6,29.99,ESE,107,2.0,3.0,61,0.00,,,0.00,Wunderground v.1.15,2013-03-05 18:20:00,
2013-03-05 13:25:00,44.3,32.5,29.99,ESE,110,1.0,4.0,63,0.00,,,0.00,Wunderground v.1.15,2013-03-05 18:25:00,
2013-03-05 13:30:00,44.7,32.1,29.99,ESE,119,1.0,4.0,61,0.00,,,0.00,Wunderground v.1.15,2013-03-05 18:30:00,
2013-03-05 13:35:00,44.6,31.1,29.99,ESE,105,3.0,6.0,59,0.00,,,0.00,Wunderground v.1.15,2013-03-05 18:35:00,
2013-03-05 13:40:00,43.7,29.5,29.98,SE,137,5.0,5.0,57,0.00,,,0.00,Wunderground v.1.15,2013-03-05 18:40:00,
2013-03-05 13:45:00,43.7,30.3,29.98,ESE,117,2.0,5.0,59,0.00,,,0.00,Wunderground v.1.15,2013-03-05 18:45:00,
2013-03-05 13:50:00,43.8,32.0,29.98,SE,133,2.0,5.0,63,0.00,,,0.00,Wunderground v.1.15,2013-03-05 18:50:00,
2013-03-05 13:55:00,43.7,33.1,29.98,SSE,153,2.0,6.0,66,0.00,,,0.00,Wunderground v.1.15,2013-03-05 18:55:00,
2013-03-05 14:00:00,43.5,32.5,29.98,SSE,149,2.0,4.0,65,0.00,,,0.00,Wunderground v.1.15,2013-03-05 19:00:00,
2013-03-05 14:05:00,43.3,31.9,29.97,ESE,123,1.0,6.0,64,0.00,,,0.00,Wunderground v.1.15,2013-03-05 19:05:00,
2013-03-05 14:11:00,43.4,30.8,29.97,SE,131,2.0,4.0,61,0.00,,,0.00,Wunderground v.1.15,2013-03-05 19:11:00,
2013-03-05 14:16:00,43.7,31.1,29.97,SE,132,1.0,4.0,61,0.00,,,0.00,Wunderground v.1.15,2013-03-05 19:16:00,
2013-03-05 14:21:00,43.8,30.4,29.97,East,101,2.0,3.0,59,0.00,,,0.00,Wunderground v.1.15,2013-03-05 19:21:00,
2013-03-05 14:26:00,43.8,30.8,29.97,ESE,111,1.0,5.0,60,0.00,,,0.00,Wunderground v.1.15,2013-03-05 19:26:00,
2013-03-05 14:31:00,44.0,31.4,29.97,ESE,118,4.0,6.0,61,0.00,,,0.00,Wunderground v.1.15,2013-03-05 19:31:00,
2013-03-05 14:36:00,44.1,32.7,29.97,ESE,119,2.0,6.0,64,0.00,,,0.00,Wunderground v.1.15,2013-03-05 19:36:00,
2013-03-05 14:41:00,43.9,32.1,29.97,SE,128,1.0,6.0,63,0.00,,,0.00,Wunderground v.1.15,2013-03-05 19:41:00,
2013-03-05 14:46:00,43.9,30.9,29.96,SE,125,2.0,6.0,60,0.00,,,0.00,Wunderground v.1.15,2013-03-05 19:46:00,
2013-03-05 14:51:00,44.0,30.6,29.96,SE,136,2.0,4.0,59,0.00,,,0.00,Wunderground v.1.15,2013-03-05 19:51:00,
2013-03-05 14:56:00,44.2,30.8,29.95,SE,135,2.0,4.0,59,0.00,,,0.00,Wunderground v.1.15,2013-03-05 19:56:00,
2013-03-05 15:01:00,44.7,30.8,29.95,SE,140,2.0,2.0,58,0.00,,,0.00,Wunderground v.1.15,2013-03-05 20:01:00,
2013-03-05 15:06:00,44.8,30.0,29.95,SE,146,1.0,6.0,56,0.00,,,0.00,Wunderground v.1.15,2013-03-05 20:06:00,
2013-03-05 15:11:00,44.9,29.7,29.95,SE,142,0.0,4.0,55,0.00,,,0.00,Wunderground v.1.15,2013-03-05 20:11:00,
2013-03-05 15:16:00,45.0,30.7,29.95,SE,140,2.0,4.0,57,0.00,,,0.00,Wunderground v.1.15,2013-03-05 20:16:00,
2013-03-05 15:21:00,45.2,30.9,29.95,ESE,113,2.0,3.0,57,0.00,,,0.00,Wunderground v.1.15,2013-03-05 20:21:00,
2013-03-05 15:26:00,45.5,29.8,29.94,East,99,1.0,4.0,54,0.00,,,0.00,Wunderground v.1.15,2013-03-05 20:26:00,
2013-03-05 15:31:00,45.6,29.9,29.94,East,98,1.0,3.0,54,0.00,,,0.00,Wunderground v.1.15,2013-03-05 20:31:00,
2013-03-05 15:36:00,45.4,32.3,29.93,East,100,1.0,5.0,60,0.00,,,0.00,Wunderground v.1.15,2013-03-05 20:36:00,
2013-03-05 15:41:00,45.3,33.4,29.93,ESE,103,1.0,4.0,63,0.00,,,0.00,Wunderground v.1.15,2013-03-05 20:41:00,
2013-03-05 15:46:00,45.0,32.3,29.94,ESE,103,1.0,4.0,61,0.00,,,0.00,Wunderground v.1.15,2013-03-05 20:46:00,
2013-03-05 15:51:00,45.0,31.9,29.94,ESE,103,4.0,4.0,60,0.00,,,0.00,Wunderground v.1.15,2013-03-05 20:51:00,
2013-03-05 15:56:00,44.8,31.3,29.94,ESE,108,3.0,6.0,59,0.00,,,0.00,Wunderground v.1.15,2013-03-05 20:56:00,
2013-03-05 16:01:00,44.5,30.6,29.94,ESE,107,0.0,3.0,58,0.00,,,0.00,Wunderground v.1.15,2013-03-05 21:01:00,
2013-03-05 16:06:00,44.5,29.8,29.94,ESE,108,1.0,5.0,56,0.00,,,0.00,Wunderground v.1.15,2013-03-05 21:06:00,
2013-03-05 16:11:00,44.4,29.2,29.95,ESE,108,0.0,2.0,55,0.00,,,0.00,Wunderground v.1.15,2013-03-05 21:11:00,
2013-03-05 16:16:00,44.5,28.4,29.94,ESE,108,0.0,2.0,53,0.00,,,0.00,Wunderground v.1.15,2013-03-05 21:16:00,
2013-03-05 16:21:00,44.5,27.5,29.94,ESE,108,1.0,2.0,51,0.00,,,0.00,Wunderground v.1.15,2013-03-05 21:21:00,
2013-03-05 16:26:00,44.5,28.0,29.95,ESE,108,3.0,4.0,52,0.00,,,0.00,Wunderground v.1.15,2013-03-05 21:26:00,
2013-03-05 16:31:00,44.4,28.8,29.95,ESE,107,1.0,2.0,54,0.00,,,0.00,Wunderground v.1.15,2013-03-05 21:31:00,
2013-03-05 16:36:00,44.2,28.6,29.95,ESE,109,0.0,3.0,54,0.00,,,0.00,Wunderground v.1.15,2013-03-05 21:36:00,
2013-03-05 16:41:00,44.0,28.9,29.95,ESE,108,0.0,1.0,55,0.00,,,0.00,Wunderground v.1.15,2013-03-05 21:41:00,
2013-03-05 16:46:00,43.9,29.2,29.94,ESE,108,1.0,1.0,56,0.00,,,0.00,Wunderground v.1.15,2013-03-05 21:46:00,
2013-03-05 16:51:00,43.8,28.2,29.94,ESE,108,0.0,1.0,54,0.00,,,0.00,Wunderground v.1.15,2013-03-05 21:51:00,
2013-03-05 16:57:00,43.8,28.2,29.95,ESE,108,0.0,2.0,54,0.00,,,0.00,Wunderground v.1.15,2013-03-05 21:57:00,
2013-03-05 17:02:00,43.7,28.6,29.95,ESE,107,0.0,1.0,55,0.00,,,0.00,Wunderground v.1.15,2013-03-05 22:02:00,
2013-03-05 17:07:00,43.7,28.1,29.95,ESE,107,0.0,1.0,54,0.00,,,0.00,Wunderground v.1.15,2013-03-05 22:07:00,
2013-03-05 17:12:00,43.6,28.0,29.95,ESE,108,0.0,0.0,54,0.00,,,0.00,Wunderground v.1.15,2013-03-05 22:12:00,
2013-03-05 17:17:00,43.5,28.8,29.95,ESE,109,0.0,0.0,56,0.00,,,0.00,Wunderground v.1.15,2013-03-05 22:17:00,
2013-03-05 17:22:00,43.5,28.8,29.94,ESE,108,0.0,0.0,56,0.00,,,0.00,Wunderground v.1.15,2013-03-05 22:22:00,
2013-03-05 17:27:00,43.4,33.9,29.95,East,95,2.0,5.0,69,0.00,,,0.00,Wunderground v.1.15,2013-03-05 22:27:00,
2013-03-05 17:32:00,43.1,35.0,29.95,SSE,163,2.0,6.0,73,0.00,,,0.00,Wunderground v.1.15,2013-03-05 22:32:00,
2013-03-05 17:38:00,42.6,33.9,29.95,SSE,163,1.0,6.0,71,0.00,,,0.00,Wunderground v.1.15,2013-03-05 22:38:00,
2013-03-05 17:43:00,42.4,34.7,29.95,SSE,163,0.0,3.0,74,0.00,,,0.00,Wunderground v.1.15,2013-03-05 22:43:00,
2013-03-05 17:48:00,42.3,34.9,29.95,SSE,163,3.0,3.0,75,0.00,,,0.00,Wunderground v.1.15,2013-03-05 22:48:00,
2013-03-05 17:53:00,42.0,34.6,29.95,SSE,163,4.0,5.0,75,0.00,,,0.00,Wunderground v.1.15,2013-03-05 22:53:00,
2013-03-05 17:58:00,41.8,34.8,29.95,SSE,163,4.0,5.0,76,0.00,,,0.00,Wunderground v.1.15,2013-03-05 22:58:00,
2013-03-05 18:03:00,41.6,34.6,29.95,SSE,163,3.0,6.0,76,0.00,,,0.00,Wunderground v.1.15,2013-03-05 23:03:00,
2013-03-05 18:08:00,41.4,34.1,29.95,SSE,163,3.0,6.0,75,0.00,,,0.00,Wunderground v.1.15,2013-03-05 23:08:00,
2013-03-05 18:13:00,41.4,34.4,29.95,SSE,163,4.0,6.0,76,0.00,,,0.00,Wunderground v.1.15,2013-03-05 23:13:00,
2013-03-05 18:18:00,41.3,35.0,29.95,SSE,163,4.0,6.0,78,0.00,,,0.00,Wunderground v.1.15,2013-03-05 23:18:00,
2013-03-05 18:23:00,41.3,35.3,29.95,SSE,163,4.0,6.0,79,0.00,,,0.00,Wunderground v.1.15,2013-03-05 23:23:00,
2013-03-05 18:28:00,41.2,35.2,29.95,SSE,163,2.0,6.0,79,0.00,,,0.00,Wunderground v.1.15,2013-03-05 23:28:00,
2013-03-05 18:33:00,41.2,35.2,29.95,SSE,163,5.0,6.0,79,0.00,,,0.00,Wunderground v.1.15,2013-03-05 23:33:00,
2013-03-05 18:38:00,41.2,35.5,29.94,SSE,163,4.0,6.0,80,0.00,,,0.00,Wunderground v.1.15,2013-03-05 23:38:00,
2013-03-05 18:43:00,41.2,35.5,29.94,SSE,163,5.0,6.0,80,0.00,,,0.00,Wunderground v.1.15,2013-03-05 23:43:00,
2013-03-05 18:48:00,41.1,35.4,29.94,SSE,163,4.0,6.0,80,0.00,,,0.00,Wunderground v.1.15,2013-03-05 23:48:00,
2013-03-05 18:53:00,41.1,35.1,29.94,SSE,163,4.0,6.0,79,0.00,,,0.00,Wunderground v.1.15,2013-03-05 23:53:00,
2013-03-05 18:58:00,41.1,34.8,29.93,SSE,163,3.0,6.0,78,0.00,,,0.00,Wunderground v.1.15,2013-03-05 23:58:00,
2013-03-05 19:03:00,41.0,32.7,29.93,SSE,163,2.0,5.0,72,0.00,,,0.00,Wunderground v.1.15,2013-03-06 00:03:00,
2013-03-05 19:08:00,41.1,32.4,29.93,SSE,163,2.0,5.0,71,0.00,,,0.00,Wunderground v.1.15,2013-03-06 00:08:00,
2013-03-05 19:13:00,41.2,33.9,29.93,SSE,163,3.0,4.0,75,0.00,,,0.00,Wunderground v.1.15,2013-03-06 00:13:00,
2013-03-05 19:18:00,41.2,33.2,29.93,SSE,163,3.0,6.0,73,0.00,,,0.00,Wunderground v.1.15,2013-03-06 00:18:00,
2013-03-05 19:23:00,41.2,32.5,29.93,SSE,162,5.0,7.0,71,0.00,,,0.00,Wunderground v.1.15,2013-03-06 00:23:00,
2013-03-05 19:28:00,41.3,33.0,29.93,SSE,163,3.0,7.0,72,0.00,,,0.00,Wunderground v.1.15,2013-03-06 00:28:00,
2013-03-05 19:33:00,41.4,33.0,29.93,SSE,163,3.0,5.0,72,0.00,,,0.00,Wunderground v.1.15,2013-03-06 00:33:00,
2013-03-05 19:39:00,41.4,33.4,29.93,SSE,163,1.0,5.0,73,0.00,,,0.00,Wunderground v.1.15,2013-03-06 00:39:00,
2013-03-05 19:44:00,41.5,34.8,29.92,SSE,163,0.0,3.0,77,0.00,,,0.00,Wunderground v.1.15,2013-03-06 00:44:00,
2013-03-05 19:49:00,41.6,35.9,29.92,SSE,163,2.0,3.0,80,0.00,,,0.00,Wunderground v.1.15,2013-03-06 00:49:00,
2013-03-05 19:54:00,41.6,36.2,29.92,SSE,163,1.0,3.0,81,0.00,,,0.00,Wunderground v.1.15,2013-03-06 00:54:00,
2013-03-05 19:59:00,41.5,35.5,29.92,SSE,161,5.0,5.0,79,0.00,,,0.00,Wunderground v.1.15,2013-03-06 00:59:00,
2013-03-05 20:04:00,41.6,35.2,29.92,SSE,161,3.0,7.0,78,0.00,,,0.00,Wunderground v.1.15,2013-03-06 01:04:00,
2013-03-05 20:09:00,41.6,35.2,29.92,SSE,154,2.0,7.0,78,0.00,,,0.00,Wunderground v.1.15,2013-03-06 01:09:00,
2013-03-05 20:14:00,41.6,35.9,29.91,SSE,153,2.0,5.0,80,0.00,,,0.00,Wunderground v.1.15,2013-03-06 01:14:00,
2013-03-05 20:19:00,41.6,35.9,29.92,SSE,152,2.0,5.0,80,0.00,,,0.00,Wunderground v.1.15,2013-03-06 01:19:00,
2013-03-05 20:24:00,41.6,35.9,29.91,SSE,153,0.0,5.0,80,0.00,,,0.00,Wunderground v.1.15,2013-03-06 01:24:00,
2013-03-05 20:29:00,41.6,35.9,29.92,SSE,154,0.0,6.0,80,0.00,,,0.00,Wunderground v.1.15,2013-03-06 01:29:00,
2013-03-05 20:34:00,41.5,35.8,29.92,SSE,149,0.0,6.0,80,0.00,,,0.00,Wunderground v.1.15,2013-03-06 01:34:00,
2013-03-05 20:39:00,41.4,35.7,29.91,SSE,149,1.0,6.0,80,0.00,,,0.00,Wunderground v.1.15,2013-03-06 01:39:00,
2013-03-05 20:44:00,41.3,35.6,29.91,SSE,148,1.0,4.0,80,0.00,,,0.00,Wunderground v.1.15,2013-03-06 01:44:00,
2013-03-05 20:49:00,41.2,35.5,29.91,ESE,121,3.0,5.0,80,0.00,,,0.00,Wunderground v.1.15,2013-03-06 01:49:00,
2013-03-05 20:54:00,41.0,35.0,29.91,SE,127,4.0,7.0,79,0.00,,,0.00,Wunderground v.1.15,2013-03-06 01:54:00,
2013-03-05 20:59:00,40.8,35.1,29.91,ESE,121,4.0,7.0,80,0.00,,,0.00,Wunderground v.1.15,2013-03-06 01:59:00,
2013-03-05 21:04:00,40.5,34.8,29.91,ESE,107,3.0,10.0,80,0.00,,,0.00,Wunderground v.1.15,2013-03-06 02:04:00,
2013-03-05 21:09:00,40.2,34.5,29.91,ESE,102,4.0,10.0,80,0.00,,,0.00,Wunderground v.1.15,2013-03-06 02:09:00,
2013-03-05 21:14:00,39.9,34.2,29.91,SE,133,5.0,10.0,80,0.00,,,0.00,Wunderground v.1.15,2013-03-06 02:14:00,
2013-03-05 21:19:00,39.7,34.0,29.91,ESE,107,9.0,12.0,80,0.00,,,0.00,Wunderground v.1.15,2013-03-06 02:19:00,
2013-03-05 21:24:00,39.5,34.2,29.90,South,169,3.0,11.0,81,0.00,,,0.00,Wunderground v.1.15,2013-03-06 02:24:00,
2013-03-05 21:29:00,39.3,34.0,29.90,SE,125,2.0,11.0,81,0.00,,,0.00,Wunderground v.1.15,2013-03-06 02:29:00,
2013-03-05 21:34:00,39.2,33.9,29.89,East,95,4.0,10.0,81,0.00,,,0.00,Wunderground v.1.15,2013-03-06 02:34:00,
2013-03-05 21:39:00,39.1,33.8,29.89,ESE,119,5.0,11.0,81,0.00,,,0.00,Wunderground v.1.15,2013-03-06 02:39:00,
2013-03-05 21:44:00,39.1,33.8,29.89,NE,44,5.0,9.0,81,0.00,,,0.00,Wunderground v.1.15,2013-03-06 02:44:00,
2013-03-05 21:49:00,39.0,33.7,29.89,ESE,117,4.0,11.0,81,0.00,,,0.00,Wunderground v.1.15,2013-03-06 02:49:00,
2013-03-05 21:54:00,38.9,33.6,29.88,SE,134,5.0,11.0,81,0.00,,,0.00,Wunderground v.1.15,2013-03-06 02:54:00,
2013-03-05 21:59:00,38.9,33.6,29.88,SE,138,3.0,11.0,81,0.00,,,0.00,Wunderground v.1.15,2013-03-06 02:59:00,
2013-03-05 22:05:00,38.8,33.8,29.87,East,87,3.0,10.0,82,0.00,,,0.00,Wunderground v.1.15,2013-03-06 03:05:00,
2013-03-05 22:10:00,38.8,33.8,29.87,SE,128,2.0,2.0,82,0.00,,,0.00,Wunderground v.1.15,2013-03-06 03:10:00,
2013-03-05 22:15:00,38.8,33.8,29.86,ESE,122,2.0,12.0,82,0.00,,,0.00,Wunderground v.1.15,2013-03-06 03:15:00,
2013-03-05 22:20:00,38.8,33.8,29.86,SE,130,0.0,3.0,82,0.00,,,0.00,Wunderground v.1.15,2013-03-06 03:20:00,
2013-03-05 22:25:00,38.8,34.1,29.86,SE,136,2.0,4.0,83,0.00,,,0.00,Wunderground v.1.15,2013-03-06 03:25:00,
2013-03-05 22:30:00,38.8,34.1,29.86,SE,140,1.0,2.0,83,0.00,,,0.00,Wunderground v.1.15,2013-03-06 03:30:00,
2013-03-05 22:35:00,38.7,33.7,29.85,SE,133,0.0,6.0,82,0.00,,,0.00,Wunderground v.1.15,2013-03-06 03:35:00,
2013-03-05 22:40:00,38.8,34.1,29.85,SE,130,3.0,3.0,83,0.00,,,0.00,Wunderground v.1.15,2013-03-06 03:40:00,
2013-03-05 22:45:00,38.8,33.8,29.85,ESE,117,2.0,6.0,82,0.00,,,0.00,Wunderground v.1.15,2013-03-06 03:45:00,
2013-03-05 22:50:00,38.8,33.8,29.85,ESE,113,1.0,2.0,82,0.00,,,0.00,Wunderground v.1.15,2013-03-06 03:50:00,
2013-03-05 22:55:00,38.8,34.1,29.84,ESE,113,3.0,6.0,83,0.00,,,0.00,Wunderground v.1.15,2013-03-06 03:55:00,
2013-03-05 23:00:00,38.8,34.1,29.84,SE,128,1.0,2.0,83,0.00,,,0.00,Wunderground v.1.15,2013-03-06 04:00:00,
2013-03-05 23:05:00,38.8,33.8,29.83,ESE,106,7.0,7.0,82,0.00,,,0.00,Wunderground v.1.15,2013-03-06 04:05:00,
2013-03-05 23:10:00,38.8,33.8,29.83,ESE,120,2.0,4.0,82,0.00,,,0.00,Wunderground v.1.15,2013-03-06 04:10:00,
2013-03-05 23:15:00,38.8,33.8,29.82,ESE,123,7.0,7.0,82,0.00,,,0.00,Wunderground v.1.15,2013-03-06 04:15:00,
2013-03-05 23:20:00,38.8,33.2,29.82,ESE,119,3.0,6.0,80,0.00,,,0.00,Wunderground v.1.15,2013-03-06 04:20:00,
2013-03-05 23:25:00,38.8,33.5,29.82,ESE,111,1.0,6.0,81,0.00,,,0.00,Wunderground v.1.15,2013-03-06 04:25:00,
2013-03-05 23:30:00,38.8,33.5,29.82,ESE,107,0.0,1.0,81,0.00,,,0.00,Wunderground v.1.15,2013-03-06 04:30:00,
2013-03-05 23:35:00,38.8,33.2,29.82,SE,144,1.0,5.0,80,0.00,,,0.00,Wunderground v.1.15,2013-03-06 04:35:00,
2013-03-05 23:40:00,38.8,32.8,29.81,SE,145,0.0,1.0,79,0.00,,,0.00,Wunderground v.1.15,2013-03-06 04:40:00,
2013-03-05 23:45:00,38.8,32.8,29.80,NW,326,4.0,4.0,79,0.00,,,0.00,Wunderground v.1.15,2013-03-06 04:45:00,
2013-03-05 23:50:00,38.8,32.8,29.81,ENE,74,0.0,1.0,79,0.00,,,0.00,Wunderground v.1.15,2013-03-06 04:50:00,
2013-03-05 23:56:00,38.8,32.8,29.80,ENE,74,0.0,3.0,79,0.00,,,0.00,Wunderground v.1.15,2013-03-06 04:56:00,